User: anonymous
Location: Unspecified
(0.0000°N, 0.0000°E)
Time: 06:24:41
(UTC+02:00)
Language:

SWIFT - Orbit

View from above orbital plane
View from above orbital plane
View from above satellite
View from above satellite

Ground track
Ground track

The orbit data is extracted from the following two-line orbital elements,

1 28485U 04047A   14243.79777398  .00002835  00000-0  19219-3 0  7567
2 28485 020.5581 052.4967 0012884 339.7510 020.2412 14.99182151534558
Epoch (UTC): 31 August 2014 19:08:47
Eccentricity: 0.0012884
inclination: 20.5581°
perigee height: 560 km
apogee height: 578 km
right ascension of ascending node: 52.4967°
argument of perigee: 339.7510°
revolutions per day: 14.99182151
mean anomaly at epoch: 20.2412°
orbit number at epoch: 53455

The dashed part of the orbit path shows where the satellite is in the earth's shadow,  

DLR